Home   Weather   Río Gallegos   Past weeks

Flag for Argentina Past Weather in Río Gallegos, Santa Cruz, Argentina — Yesterday and Last 2 Weeks

Now
46 °F

Broken clouds.


Feels Like: 42 °F
Forecast: 39 / 53 °F
Wind: 8 mph from Northwest

Location: Rio Gallegos Aerodrome

Current Time: Sep 26, 2016 at 11:05:27 AM

Latest Report: Sep 26, 2016 at 10:00 AM


Visibility: N/A

Pressure: 29.62 "Hg

Humidity: 76%

Dew Point: 39 °F

Location of Río GallegosLocation

Past Weather in Río Gallegos — Graph

°F

Río Gallegos Temperature Yesterday

Maximum temperature yesterday: 54 °F (at 1:00 PM)
Minimum temperature yesterday: 41 °F (at 5:00 AM)
Average temperature yesterday: 47 °F

High & Low Weather Summary for the Past Weeks

 TemperatureHumidityPressure
High61 °F (Sep 20, 3:00 PM)100% (Sep 12, 7:00 AM)30.24 "Hg (Sep 12, 7:00 AM)
Low30 °F (Sep 17, 4:00 AM)21% (Sep 17, 3:00 PM)29.36 "Hg (Sep 20, 1:00 AM)
Average45 °F60%29.86 "Hg
* Reported Sep 11 10:00 AM — Sep 26 10:00 AM, Río Gallegos, Weather by CustomWeather, © 2016

Note: Actual official high and low records may vary slightly from our data, if they occured in-between our weather recording intervals... More about our weather records

Advertising

Río Gallegos Weather History for the Previous 24 Hours

Scroll right to see more
 ConditionsComfort  
Time TempWeatherWind HumidityBarometerVisibility
10:00 AM
Mon, Sep 26
46 °FBroken clouds.8 mph76%29.62 "HgN/A
9:00 AM45 °FScattered clouds.5 mph81%29.59 "HgN/A
8:00 AM41 °FScattered clouds.No wind87%29.59 "HgN/A
7:00 AM39 °FPassing clouds.5 mph87%29.59 "HgN/A
6:00 AM43 °FQuite cool.No wind81%29.59 "HgN/A
5:00 AM45 °FClear.10 mph76%29.56 "Hg10 mi
4:00 AM45 °FClear.14 mph81%29.56 "Hg10 mi
3:00 AM45 °FClear.15 mph81%29.56 "Hg10 mi
2:00 AM46 °FClear.3 mph76%29.56 "Hg10 mi
1:00 AM46 °FPartly cloudy.7 mph76%29.56 "HgN/A
12:00 AM46 °FPassing clouds.22 mph82%29.56 "HgN/A
11:00 PM
Sun, Sep 25
46 °FPassing clouds.24 mph76%29.56 "HgN/A
10:00 PM46 °FClear.25 mph76%29.59 "Hg10 mi
9:00 PM46 °FClear.24 mph76%29.59 "Hg10 mi
8:00 PM46 °FClear.15 mph76%29.62 "Hg10 mi
7:00 PM46 °FSunny.10 mph71%29.65 "Hg10 mi
6:00 PM50 °FSunny.13 mph62%29.68 "Hg10 mi
5:00 PM52 °FSunny.14 mph58%29.68 "Hg10 mi
4:00 PM54 °FSunny.23 mph77%29.74 "Hg10 mi
3:00 PM54 °FSunny.12 mph54%29.74 "Hg10 mi
2:00 PM54 °FSunny.26 mph54%29.77 "Hg10 mi
1:00 PM54 °FSunny.24 mph51%29.80 "Hg10 mi
12:00 PM52 °FSunny.24 mph50%29.83 "Hg10 mi
11:00 AM48 °FSunny.25 mph62%29.86 "Hg10 mi
Weather by CustomWeather, © 2016

See weather overviewHow to use our weather pages